Taos, NM

10:32 PM MST on February 24, 2017 (GMT -0700)
Taos Municipal

Weather History for KSKX - June, 2014

Change the Weather History Date:

Wednesday, June 25, 2014

  Actual Average Record
Temperature  
Mean Temperature 72 °F -  
Max Temperature 84 °F 81 °F 93 °F (2012)
Min Temperature 57 °F 44 °F 42 °F (1998)
Cooling Degree Days 6    
Growing Degree Days 22 (Base 50)    
Moisture  
Dew Point 30 °F    
Average Humidity 20    
Maximum Humidity 36    
Minimum Humidity 13    
Precipitation  
Precipitation 0.00 in - - ()
Sea Level Pressure  
Sea Level Pressure 30.14 in    
Wind  
Wind Speed 15 mph (SSW)    
Max Wind Speed 23 mph    
Max Gust Speed 30 mph    
Averages and records for this station are not official NWS values.
T = Trace of Precipitation, MM = Missing Value Source: NWS Daily Summary

Daily Weather History Graph

Daily Weather History Graph

Search for Another Location

Airport or City:

Trip Planner

Search our weather history database for the weather conditions in past years. The results will help you decide how hot, cold, wet, or windy it might be!

Date:

Astronomy

Jun. 25, 2014 Rise Set
Actual Time 5:46 AM MDT 8:24 PM MDT
Civil Twilight 5:15 AM MDT 8:55 PM MDT
Nautical Twilight 4:37 AM MDT 9:33 PM MDT
Astronomical Twilight 3:55 AM MDT 10:15 PM MDT
Moon 4:36 AM MDT 7:01 PM MDT
Length of Visible Light 15h 39m
Length of Day
14h 38m
Waning Crescent, 2% of the Moon is Illuminated
Jun 25
Waning Crescent
Jun 27
New
Jul 5
First Quarter
Jul 12
Full
Jul 18
Last Quarter

Hourly Weather History & Observations

Time (MDT) Temp. Dew Point Humidity Pressure Visibility Wind Dir Wind Speed Gust Speed Precip Events Conditions
2:55 PM 84.2 °F 28.4 °F 13% 30.17 in - SW 16.1 mph 24.2 mph N/A   Unknown
3:15 PM 82.4 °F 30.2 °F 15% 30.16 in - SW 13.8 mph 27.6 mph N/A   Clear
3:35 PM 84.2 °F 30.2 °F 14% 30.15 in - South 16.1 mph 27.6 mph N/A   Clear
3:55 PM 84.2 °F 33.8 °F 16% 30.14 in - SW 23.0 mph 27.6 mph N/A   Clear
4:15 PM 84.2 °F 35.6 °F 18% 30.15 in - SW 21.9 mph 29.9 mph N/A   Clear
4:35 PM 82.4 °F 37.4 °F 20% 30.15 in - SW 17.3 mph 27.6 mph N/A   Clear
4:55 PM 82.4 °F 39.2 °F 21% 30.15 in - SW 19.6 mph 29.9 mph N/A   Clear
5:15 PM 82.4 °F 37.4 °F 20% 30.14 in - SW 19.6 mph - N/A   Clear
5:35 PM 80.6 °F 37.4 °F 21% 30.13 in - SSW 12.7 mph 24.2 mph N/A   Clear
5:55 PM 82.4 °F 37.4 °F 20% 30.12 in - SSW 16.1 mph 21.9 mph N/A   Clear
6:15 PM 82.4 °F 35.6 °F 19% 30.11 in - WSW 15.0 mph 20.7 mph N/A   Clear
6:35 PM 82.4 °F 32.0 °F 16% 30.11 in - SSW 17.3 mph 24.2 mph N/A   Clear
7:15 PM 80.6 °F 26.6 °F 14% 30.11 in - SSW 17.3 mph 21.9 mph N/A   Clear
7:35 PM 80.6 °F 26.6 °F 14% 30.11 in - SW 16.1 mph 21.9 mph N/A   Clear
8:15 PM 77.0 °F 23.0 °F 13% 30.12 in - SSW 9.2 mph - N/A   Clear
8:55 PM 69.8 °F 21.2 °F 16% 30.12 in - SSW 8.1 mph - N/A   Clear
9:15 PM 66.2 °F 19.4 °F 17% 30.13 in - South 5.8 mph - N/A   Clear
9:35 PM 64.4 °F 21.2 °F 19% 30.15 in - Calm Calm - N/A   Clear
9:55 PM 62.6 °F 21.2 °F 20% 30.15 in - SE 6.9 mph - N/A   Clear
10:15 PM 62.6 °F 21.2 °F 20% 30.16 in - SE 10.4 mph - N/A   Clear
10:35 PM 62.6 °F 26.6 °F 26% 30.17 in - ESE 9.2 mph - N/A   Clear
11:15 PM 60.8 °F 33.8 °F 36% 30.17 in - ENE 5.8 mph - N/A   Clear
11:35 PM 59.0 °F 28.4 °F 31% 30.17 in - ENE 5.8 mph - N/A   Clear
11:55 PM 57.2 °F 26.6 °F 31% 30.17 in - East 6.9 mph - N/A   Clear